Home   Weather   Roskilde   Past weeks

Flag for Denmark Past Weather in Roskilde, Denmark — Yesterday and Last 2 Weeks

52 °F

Passing clouds.

Feels Like: 45 °F
Forecast: 46 / 52 °F
Wind: 23 mph from Northwest

Location: Koebenhavn / Roskilde

Current Time: Oct 28, 2016 at 2:25:04 PM

Latest Report: Oct 28, 2016 at 1:50 PM

Visibility: N/A

Pressure: 30.15 "Hg

Humidity: 72%

Dew Point: 43 °F

Location of RoskildeLocation

Past Weather in Roskilde — Graph


Roskilde Temperature Yesterday

Maximum temperature yesterday: 55 °F (at 11:50 AM)
Minimum temperature yesterday: 46 °F (at 12:20 AM)
Average temperature yesterday: 51 °F

High & Low Weather Summary for the Past Weeks

High55 °F (Oct 27, 11:50 AM)100% (Oct 15, 10:20 PM)30.36 "Hg (Oct 15, 10:20 PM)
Low32 °F (Oct 26, 12:50 AM)67% (Oct 14, 12:20 PM)29.92 "Hg (Oct 19, 7:20 AM)
Average47 °F90%30.13 "Hg
* Reported Oct 13 1:20 PM — Oct 28 1:20 PM, Roskilde, Weather by CustomWeather, © 2016

Note: Actual official high and low records may vary slightly from our data, if they occured in-between our weather recording intervals... More about our weather records


Roskilde Weather History for the Previous 24 Hours

Scroll right to see more
Time TempWeatherWind HumidityBarometerVisibility
1:20 PM
Fri, Oct 28
52 °FPassing clouds.24 mph67%30.12 "HgN/A
12:50 PM54 °FBroken clouds.23 mph67%30.15 "HgN/A
12:20 PM52 °FPartly sunny.22 mph77%30.12 "HgN/A
11:50 AM54 °FPassing clouds.20 mph77%30.12 "HgN/A
11:20 AM52 °FPartly sunny.20 mph88%30.09 "HgN/A
10:50 AM54 °FSprinkles. Broken clouds.18 mph88%30.09 "HgN/A
10:20 AM54 °FRain showers. Partly sunny.14 mph100%30.07 "Hg3 mi
9:50 AM54 °FSprinkles. Broken clouds.14 mph100%30.07 "Hg6 mi
9:20 AM54 °FMostly cloudy.15 mph94%30.07 "HgN/A
8:50 AM54 °FMostly cloudy.15 mph94%30.07 "HgN/A
8:20 AM54 °FMostly cloudy.15 mph94%30.07 "HgN/A
7:50 AM54 °FSprinkles. Fog.14 mph94%30.07 "Hg2 mi
7:20 AM54 °FMostly cloudy.14 mph94%30.07 "HgN/A
6:50 AM54 °FSprinkles. Passing clouds.13 mph94%30.07 "Hg4 mi
6:20 AM54 °FDrizzle. Fog.14 mph94%30.07 "Hg2 mi
5:50 AM54 °FMostly cloudy.15 mph88%30.07 "HgN/A
5:20 AM54 °FPassing clouds.16 mph88%30.07 "HgN/A
4:50 AM54 °FMostly cloudy.14 mph88%30.09 "HgN/A
4:20 AM54 °FOvercast.15 mph88%30.09 "HgN/A
3:50 AM52 °FSprinkles. Partly cloudy.15 mph94%30.09 "HgN/A
3:20 AM54 °FPassing clouds.16 mph88%30.12 "HgN/A
2:50 AM54 °FPartly cloudy.17 mph88%30.12 "HgN/A
2:20 AM52 °FPassing clouds.18 mph94%30.12 "Hg6 mi
1:50 AM52 °FOvercast.18 mph94%30.15 "Hg4 mi
1:20 AM54 °FFog.17 mph88%30.15 "Hg2 mi
12:50 AM54 °FMostly cloudy.17 mph88%30.18 "Hg5 mi
12:20 AM54 °FPartly cloudy.18 mph94%30.18 "Hg5 mi
11:50 PM
Thu, Oct 27
54 °FLow clouds.15 mph94%30.18 "HgN/A
11:20 PM54 °FPartly cloudy.15 mph88%30.21 "HgN/A
10:50 PM54 °FPartly cloudy.17 mph94%30.21 "HgN/A
10:20 PM54 °FPassing clouds.14 mph94%30.21 "HgN/A
9:50 PM54 °FLow clouds.14 mph94%30.21 "HgN/A
9:20 PM54 °FPassing clouds.13 mph88%30.21 "HgN/A
8:50 PM52 °FPassing clouds.12 mph94%30.24 "HgN/A
8:20 PM52 °FPartly cloudy.9 mph88%30.24 "HgN/A
7:50 PM52 °FPassing clouds.12 mph88%30.24 "HgN/A
7:20 PM50 °FPassing clouds.9 mph94%30.24 "HgN/A
6:50 PM50 °FPassing clouds.8 mph94%30.24 "HgN/A
6:20 PM50 °FPassing clouds.7 mph94%30.24 "HgN/A
5:50 PM52 °FPassing clouds.9 mph88%30.27 "HgN/A
5:20 PM54 °FBroken clouds.8 mph88%30.27 "HgN/A
4:50 PM55 °FPassing clouds.8 mph82%30.27 "HgN/A
4:20 PM55 °FPassing clouds.9 mph82%30.24 "HgN/A
3:50 PM55 °FPassing clouds.8 mph82%30.27 "HgN/A
3:20 PM55 °FScattered clouds.9 mph77%30.27 "HgN/A
2:50 PM55 °FScattered clouds.14 mph77%30.27 "HgN/A
2:20 PM55 °FCool.13 mph77%30.27 "HgN/A
Weather by CustomWeather, © 2016

See weather overviewHow to use our weather pages